Showing default

GALAXY 36, 54742

Orbit data source: Space-Track

GALAXY 36, 54742 is a payload satellite owned by Intelsat SA (US) (US) in GEO that was launched on Tue, 13 Dec 2022 UTC via an ARIANE 5ECA+ launch vehicle from the French Guiana (FRGUI). Payload-class satellites include a variety of spacecraft equipped with specific instruments for various scientific and technological missions. These include communications satellites like Starlink; space stations such as the ISS; scientific satellites like the Hubble; Earth observation satellites from companies like Planet Labs, Umbra, and HawkEye 360; GPS; miniature CubeSats for education and research; and military/defense satellites.

Loading next visibility...
Identifier
54742, 2022-170B
Orbit
GEO
Country
Flag of USUS
Related business
Manufacturer
Maxar Space Sol
Mission
Operational Commercial Communications
Bus & Motor
SSL-1300, R-4D
Mass
3,150 kg wet, ~2,000 kg dry
Launch date (UTC)
2022-12-13 (3 years ago)
Launch vehicle
ARIANE 5ECA+
Launch site
French Guiana (FRGUI)
Object type
Payload
Rocket body
Debris
Shape & HBR
Box + 2 Pan, 6.0 m
Radar Cross Section
30.995 m², Large (>1 m²)

Expand to show TLE details & history
Last TLE update: 8 hours ago

TLE from 8 hours ago
0 GALAXY 36
1 54742U 22170B   25308.52342565 -.00000173  00000-0  00000-0 0  9996
2 54742   0.0181 246.4599 0000998 300.8201 316.2026  1.00272012 10526
Epoch: 2025-11-04T12:33Z
TLE epoch observation values (Epoch: 2025-11-04T12:33:43.976Z)
Latitude
-0.0413°
Longitude
-89.00748°
Altitude
35,783 km
Speed
3.075 km/s
True Right ascension
09h 33m 44s
True Declination
0° 02' 29"
Sunlit
Object was in daylight at epoch
Visualization orbit readout
Latitude
Unknown
Longitude
Unknown
Altitude
Unknown
Speed
Unknown
Apparent Right ascension
Unknown
Apparent Declination
Unknown
Sunlit
N/A
Visualization observer readout
Local Sidereal Time
16:25:45
Azimuth
Unknown
Elevation
Unknown
Doppler factor
Unknown
Orbital elements
Apogee altitude
35,791.81 km
Perigee altitude
35,783.394 km
Semi-major axis
42,165.739 km
Eccentricity
0.0001
Inclination
0.0181°
RAAN
246.4599°
Arg. of periapsis
300.8201°
True anomaly
316.19468°
Mean anomaly
316.2026°
Eccentric anomaly
316.19864°
Mean motion
0.25067 °/min
Orbital period
1,436.15 mins
BSTAR
0
Loading maneuver chart data...
Computing Atmospheric mass density...
Loading historical data...
Loading historical data...
Loading historical data...
Loading historical data...
Loading historical data...
Loading historical data...
Loading historical data...
Other satellites on launch #170 in the year 2022 (2022-12-13 UTC)

Documentation

Showing up to 5 results
|